Year,Month,Day,Hour,Minute,Value (Times are PST for temperature in C)
2012,10,22,00,00,-0.10
2012,10,22,00,01,-0.10
2012,10,22,00,02,-0.10
2012,10,22,00,03,-0.10
2012,10,22,00,04,-0.10
2012,10,22,00,05,-0.20
2012,10,22,00,06,-0.20
2012,10,22,00,07,-0.20
2012,10,22,00,08,-0.30
2012,10,22,00,09,-0.30
2012,10,22,00,10,-0.30
2012,10,22,00,11,-0.30
2012,10,22,00,12,-0.30
2012,10,22,00,13,-0.30
2012,10,22,00,14,-0.30
2012,10,22,00,15,-0.30
2012,10,22,00,16,-0.30
2012,10,22,00,17,-0.30
2012,10,22,00,18,-0.30
2012,10,22,00,19,-0.30
2012,10,22,00,20,-0.30
2012,10,22,00,21,-0.30
2012,10,22,00,22,-0.30
2012,10,22,00,23,-0.30
2012,10,22,00,24,-0.30
2012,10,22,00,25,-0.30
2012,10,22,00,26,-0.30
2012,10,22,00,27,-0.30
2012,10,22,00,28,-0.20
2012,10,22,00,29,-0.20
2012,10,22,00,30,-0.20
2012,10,22,00,31,-0.30
2012,10,22,00,32,-0.30
2012,10,22,00,33,-0.30
2012,10,22,00,34,-0.30
2012,10,22,00,35,-0.30
2012,10,22,00,36,-0.30
2012,10,22,00,37,-0.30
2012,10,22,00,38,-0.30
2012,10,22,00,39,-0.40
2012,10,22,00,40,-0.40
2012,10,22,00,41,-0.40
2012,10,22,00,42,-0.40
2012,10,22,00,43,-0.40
2012,10,22,00,44,-0.50
2012,10,22,00,45,-0.50
2012,10,22,00,46,-0.50
2012,10,22,00,47,-0.50
2012,10,22,00,48,-0.60
2012,10,22,00,49,-0.60
2012,10,22,00,50,-0.60
2012,10,22,00,51,-0.60
2012,10,22,00,52,-0.60
2012,10,22,00,53,-0.70
2012,10,22,00,54,-0.70
2012,10,22,00,55,-0.70
2012,10,22,00,56,-0.70
2012,10,22,00,57,-0.70
2012,10,22,00,58,-0.80
2012,10,22,00,59,-0.80
2012,10,22,01,00,-0.80
2012,10,22,01,01,-0.80
2012,10,22,01,02,-0.80
2012,10,22,01,03,-0.80
2012,10,22,01,04,-0.80
2012,10,22,01,05,-0.80
2012,10,22,01,06,-0.80
2012,10,22,01,07,-0.80
2012,10,22,01,08,-0.80
2012,10,22,01,09,-0.80
2012,10,22,01,10,-0.80
2012,10,22,01,11,-0.80
2012,10,22,01,12,-0.80
2012,10,22,01,13,-0.90
2012,10,22,01,14,-0.90
2012,10,22,01,15,-0.90
2012,10,22,01,16,-0.90
2012,10,22,01,17,-0.90
2012,10,22,01,18,-0.90
2012,10,22,01,19,-0.90
2012,10,22,01,20,-0.90
2012,10,22,01,21,-0.90
2012,10,22,01,22,-0.90
2012,10,22,01,23,-0.80
2012,10,22,01,24,-0.90
2012,10,22,01,25,-0.90
2012,10,22,01,26,-0.90
2012,10,22,01,27,-0.90
2012,10,22,01,28,-0.90
2012,10,22,01,29,-0.90
2012,10,22,01,30,-0.90
2012,10,22,01,31,-0.90
2012,10,22,01,32,-0.90
2012,10,22,01,33,-0.90
2012,10,22,01,34,-0.90
2012,10,22,01,35,-0.90
2012,10,22,01,36,-0.90
2012,10,22,01,37,-1.00
2012,10,22,01,38,-1.00
2012,10,22,01,39,-1.00
2012,10,22,01,40,-1.00
2012,10,22,01,41,-1.00
2012,10,22,01,42,-1.00
2012,10,22,01,43,-1.00
2012,10,22,01,44,-1.00
2012,10,22,01,45,-1.00
2012,10,22,01,46,-1.00
2012,10,22,01,47,-1.00
2012,10,22,01,48,-1.00
2012,10,22,01,49,-1.00
2012,10,22,01,50,-1.10
2012,10,22,01,51,-1.10
2012,10,22,01,52,-1.10
2012,10,22,01,53,-1.20
2012,10,22,01,54,-1.20
2012,10,22,01,55,-1.20
2012,10,22,01,56,-1.20
2012,10,22,01,57,-1.20
2012,10,22,01,58,-1.20
2012,10,22,01,59,-1.20
2012,10,22,02,00,-1.30
2012,10,22,02,01,-1.30
2012,10,22,02,02,-1.30
2012,10,22,02,03,-1.30
2012,10,22,02,04,-1.30
2012,10,22,02,05,-1.30
2012,10,22,02,06,-1.40
2012,10,22,02,07,-1.40
2012,10,22,02,08,-1.40
2012,10,22,02,09,-1.40
2012,10,22,02,10,-1.50
2012,10,22,02,11,-1.50
2012,10,22,02,12,-1.50
2012,10,22,02,13,-1.60
2012,10,22,02,14,-1.60
2012,10,22,02,15,-1.60
2012,10,22,02,16,-1.60
2012,10,22,02,17,-1.70
2012,10,22,02,18,-1.70
2012,10,22,02,19,-1.70
2012,10,22,02,20,-1.70
2012,10,22,02,21,-1.80
2012,10,22,02,22,-1.80
2012,10,22,02,23,-1.80
2012,10,22,02,24,-1.80
2012,10,22,02,25,-1.80
2012,10,22,02,26,-1.90
2012,10,22,02,27,-1.90
2012,10,22,02,28,-1.90
2012,10,22,02,29,-2.00
2012,10,22,02,30,-2.00
2012,10,22,02,31,-2.00
2012,10,22,02,32,-2.00
2012,10,22,02,33,-2.10
2012,10,22,02,34,-2.10
2012,10,22,02,35,-2.10
2012,10,22,02,36,-2.20
2012,10,22,02,37,-2.20
2012,10,22,02,38,-2.30
2012,10,22,02,39,-2.30
2012,10,22,02,40,-2.30
2012,10,22,02,41,-2.40
2012,10,22,02,42,-2.40
2012,10,22,02,43,-2.50
2012,10,22,02,44,-2.50
2012,10,22,02,45,-2.50
2012,10,22,02,46,-2.50
2012,10,22,02,47,-2.60
2012,10,22,02,48,-2.60
2012,10,22,02,49,-2.60
2012,10,22,02,50,-2.60
2012,10,22,02,51,-2.60
2012,10,22,02,52,-2.70
2012,10,22,02,53,-2.70
2012,10,22,02,54,-2.70
2012,10,22,02,55,-2.70
2012,10,22,02,56,-2.70
2012,10,22,02,57,-2.80
2012,10,22,02,58,-2.80
2012,10,22,02,59,-2.80
2012,10,22,03,00,-2.80
2012,10,22,03,01,-2.80
2012,10,22,03,02,-2.80
2012,10,22,03,03,-2.90
2012,10,22,03,04,-2.90
2012,10,22,03,05,-2.90
2012,10,22,03,06,-2.90
2012,10,22,03,07,-2.90
2012,10,22,03,08,-2.90
2012,10,22,03,09,-2.90
2012,10,22,03,10,-2.90
2012,10,22,03,11,-2.90
2012,10,22,03,12,-2.90
2012,10,22,03,13,-2.90
2012,10,22,03,14,-2.80
2012,10,22,03,15,-2.80
2012,10,22,03,16,-2.80
2012,10,22,03,17,-2.80
2012,10,22,03,18,-2.80
2012,10,22,03,19,-2.80
2012,10,22,03,20,-2.80
2012,10,22,03,21,-2.80
2012,10,22,03,22,-2.80
2012,10,22,03,23,-2.70
2012,10,22,03,24,-2.70
2012,10,22,03,25,-2.70
2012,10,22,03,26,-2.70
2012,10,22,03,27,-2.70
2012,10,22,03,28,-2.80
2012,10,22,03,29,-2.80
2012,10,22,03,30,-2.80
2012,10,22,03,31,-2.80
2012,10,22,03,32,-2.80
2012,10,22,03,33,-2.80
2012,10,22,03,34,-2.80
2012,10,22,03,35,-2.80
2012,10,22,03,36,-2.80
2012,10,22,03,37,-2.80
2012,10,22,03,38,-2.80
2012,10,22,03,39,-2.80
2012,10,22,03,40,-2.80
2012,10,22,03,41,-2.90
2012,10,22,03,42,-2.90
2012,10,22,03,43,-2.90
2012,10,22,03,44,-3.00
2012,10,22,03,45,-3.00
2012,10,22,03,46,-3.00
2012,10,22,03,47,-3.00
2012,10,22,03,48,-3.00
2012,10,22,03,49,-3.10
2012,10,22,03,50,-3.10
2012,10,22,03,51,-3.10
2012,10,22,03,52,-3.10
2012,10,22,03,53,-3.10
2012,10,22,03,54,-3.10
2012,10,22,03,55,-3.10
2012,10,22,03,56,-3.10
2012,10,22,03,57,-3.10
2012,10,22,03,58,-3.10
2012,10,22,03,59,-3.10
2012,10,22,04,00,-3.10
2012,10,22,04,01,-3.10
2012,10,22,04,02,-3.10
2012,10,22,04,03,-3.10
2012,10,22,04,04,-3.10
2012,10,22,04,05,-3.20
2012,10,22,04,06,-3.20
2012,10,22,04,07,-3.20
2012,10,22,04,08,-3.20
2012,10,22,04,09,-3.20
2012,10,22,04,10,-3.20
2012,10,22,04,11,-3.20
2012,10,22,04,12,-3.20
2012,10,22,04,13,-3.20
2012,10,22,04,14,-3.20
2012,10,22,04,15,-3.20
2012,10,22,04,16,-3.20
2012,10,22,04,17,-3.10
2012,10,22,04,18,-3.10
2012,10,22,04,19,-3.10
2012,10,22,04,20,-3.10
2012,10,22,04,21,-3.00
2012,10,22,04,22,-3.00
2012,10,22,04,23,-3.00
2012,10,22,04,24,-3.00
2012,10,22,04,25,-3.10
2012,10,22,04,26,-3.10
2012,10,22,04,27,-3.10
2012,10,22,04,28,-3.10
2012,10,22,04,29,-3.20
2012,10,22,04,30,-3.20
2012,10,22,04,31,-3.20
2012,10,22,04,32,-3.20
2012,10,22,04,33,-3.20
2012,10,22,04,34,-3.30
2012,10,22,04,35,-3.40
2012,10,22,04,36,-3.40
2012,10,22,04,37,-3.50
2012,10,22,04,38,-3.50
2012,10,22,04,39,-3.50
2012,10,22,04,40,-3.60
2012,10,22,04,41,-3.60
2012,10,22,04,42,-3.60
2012,10,22,04,43,-3.70
2012,10,22,04,44,-3.70
2012,10,22,04,45,-3.70
2012,10,22,04,46,-3.80
2012,10,22,04,47,-3.80
2012,10,22,04,48,-3.90
2012,10,22,04,49,-3.90
2012,10,22,04,50,-3.90
2012,10,22,04,51,-4.00
2012,10,22,04,52,-4.00
2012,10,22,04,53,-4.00
2012,10,22,04,54,-4.10
2012,10,22,04,55,-4.10
2012,10,22,04,56,-4.20
2012,10,22,04,57,-4.20
2012,10,22,04,58,-4.30
2012,10,22,04,59,-4.30
2012,10,22,05,00,-4.40
2012,10,22,05,01,-4.40
2012,10,22,05,02,-4.40
2012,10,22,05,03,-4.50
2012,10,22,05,04,-4.50
2012,10,22,05,05,-4.60
2012,10,22,05,06,-4.60
2012,10,22,05,07,-4.60
2012,10,22,05,08,-4.60
2012,10,22,05,09,-4.70
2012,10,22,05,10,-4.70
2012,10,22,05,11,-4.70
2012,10,22,05,12,-4.80
2012,10,22,05,13,-4.80
2012,10,22,05,14,-4.80
2012,10,22,05,15,-4.80
2012,10,22,05,16,-4.80
2012,10,22,05,17,-4.80
2012,10,22,05,18,-4.90
2012,10,22,05,19,-4.90
2012,10,22,05,20,-4.90
2012,10,22,05,21,-5.00
2012,10,22,05,22,-5.00
2012,10,22,05,23,-5.00
2012,10,22,05,24,-5.10
2012,10,22,05,25,-5.20
2012,10,22,05,26,-5.20
2012,10,22,05,27,-5.20
2012,10,22,05,28,-5.30
2012,10,22,05,29,-5.30
2012,10,22,05,30,-5.40
2012,10,22,05,31,-5.40
2012,10,22,05,32,-5.50
2012,10,22,05,33,-5.50
2012,10,22,05,34,-5.50
2012,10,22,05,35,-5.60
2012,10,22,05,36,-5.60
2012,10,22,05,37,-5.70
2012,10,22,05,38,-5.70
2012,10,22,05,39,-5.70
2012,10,22,05,40,-5.70
2012,10,22,05,41,-5.70
2012,10,22,05,42,-5.70
2012,10,22,05,43,-5.70
2012,10,22,05,44,-5.80
2012,10,22,05,45,-5.70
2012,10,22,05,46,-5.70
2012,10,22,05,47,-5.70
2012,10,22,05,48,-5.70
2012,10,22,05,49,-5.70
2012,10,22,05,50,-5.70
2012,10,22,05,51,-5.80
2012,10,22,05,52,-5.80
2012,10,22,05,53,-5.80
2012,10,22,05,54,-5.80
2012,10,22,05,55,-5.80
2012,10,22,05,56,-5.80
2012,10,22,05,57,-5.80
2012,10,22,05,58,-5.80
2012,10,22,05,59,-5.80
2012,10,22,06,00,-5.80
2012,10,22,06,01,-5.80
2012,10,22,06,02,-5.80
2012,10,22,06,03,-5.80
2012,10,22,06,04,-5.80
2012,10,22,06,05,-5.80
2012,10,22,06,06,-5.80
2012,10,22,06,07,-5.80
2012,10,22,06,08,-5.80
2012,10,22,06,09,-5.80
2012,10,22,06,10,-5.80
2012,10,22,06,11,-5.80
2012,10,22,06,12,-5.90
2012,10,22,06,13,-5.80
2012,10,22,06,14,-5.80
2012,10,22,06,15,-5.80
2012,10,22,06,16,-5.80
2012,10,22,06,17,-5.80
2012,10,22,06,18,-5.80
2012,10,22,06,19,-5.80
2012,10,22,06,20,-5.80
2012,10,22,06,21,-5.80
2012,10,22,06,22,-5.80
2012,10,22,06,23,-5.80
2012,10,22,06,24,-5.80
2012,10,22,06,25,-5.70
2012,10,22,06,26,-5.70
2012,10,22,06,27,-5.70
2012,10,22,06,28,-5.70
2012,10,22,06,29,-5.60
2012,10,22,06,30,-5.60
2012,10,22,06,31,-5.60
2012,10,22,06,32,-5.60
2012,10,22,06,33,-5.60
2012,10,22,06,34,-5.60
2012,10,22,06,35,-5.50
2012,10,22,06,36,-5.50
2012,10,22,06,37,-5.50
2012,10,22,06,38,-5.50
2012,10,22,06,39,-5.50
2012,10,22,06,40,-5.50
2012,10,22,06,41,-5.40
2012,10,22,06,42,-5.40
2012,10,22,06,43,-5.40
2012,10,22,06,44,-5.40
2012,10,22,06,45,-5.40
2012,10,22,06,46,-5.30
2012,10,22,06,47,-5.30
2012,10,22,06,48,-5.30
2012,10,22,06,49,-5.30
2012,10,22,06,50,-5.40
2012,10,22,06,51,-5.40
2012,10,22,06,52,-5.40
2012,10,22,06,53,-5.40
2012,10,22,06,54,-5.40
2012,10,22,06,55,-5.40
2012,10,22,06,56,-5.40
2012,10,22,06,57,-5.40
2012,10,22,06,58,-5.40
2012,10,22,06,59,-5.40
2012,10,22,07,00,-5.40
2012,10,22,07,01,-5.40
2012,10,22,07,02,-5.40
2012,10,22,07,03,-5.40
2012,10,22,07,04,-5.40
2012,10,22,07,05,-5.40
2012,10,22,07,06,-5.40
2012,10,22,07,07,-5.40
2012,10,22,07,08,-5.40
2012,10,22,07,09,-5.50
2012,10,22,07,10,-5.50
2012,10,22,07,11,-5.50
2012,10,22,07,12,-5.60
2012,10,22,07,13,-5.70
2012,10,22,07,14,-5.70
2012,10,22,07,15,-5.80
2012,10,22,07,16,-5.90
2012,10,22,07,17,-5.90
2012,10,22,07,18,-6.00
2012,10,22,07,19,-6.00
2012,10,22,07,20,-6.10
2012,10,22,07,21,-6.10
2012,10,22,07,22,-6.10
2012,10,22,07,23,-6.10
2012,10,22,07,24,-6.20
2012,10,22,07,25,-6.20
2012,10,22,07,26,-6.20
2012,10,22,07,27,-6.20
2012,10,22,07,28,-6.20
2012,10,22,07,29,-6.20
2012,10,22,07,30,-6.20
2012,10,22,07,31,-6.20
2012,10,22,07,32,-6.20
2012,10,22,07,33,-6.20
2012,10,22,07,34,-6.20
2012,10,22,07,35,-6.20
2012,10,22,07,36,-6.30
2012,10,22,07,37,-6.30
2012,10,22,07,38,-6.30
2012,10,22,07,39,-6.40
2012,10,22,07,40,-6.40
2012,10,22,07,41,-6.40
2012,10,22,07,42,-6.40
2012,10,22,07,43,-6.40
2012,10,22,07,44,-6.40
2012,10,22,07,45,-6.40
2012,10,22,07,46,-6.40
2012,10,22,07,47,-6.40
2012,10,22,07,48,-6.40
2012,10,22,07,49,-6.40
2012,10,22,07,50,-6.40
2012,10,22,07,51,-6.40
2012,10,22,07,52,-6.40
2012,10,22,11,49,-7.20
2012,10,22,11,50,-7.10
2012,10,22,11,51,-7.10
2012,10,22,11,52,-7.10
2012,10,22,11,53,-7.00
2012,10,22,11,54,-7.00
2012,10,22,11,55,-6.90
2012,10,22,11,56,-6.90
2012,10,22,11,57,-6.80
2012,10,22,11,58,-6.70
2012,10,22,11,59,-6.60
2012,10,22,12,00,-6.60
2012,10,22,12,01,-6.40
2012,10,22,12,02,-6.30
2012,10,22,12,03,-6.20
2012,10,22,12,04,-6.10
2012,10,22,12,05,-5.90
2012,10,22,12,06,-5.80
2012,10,22,12,07,-5.70
2012,10,22,12,08,-5.50
2012,10,22,12,09,-5.40
2012,10,22,12,10,-5.30
2012,10,22,12,11,-5.20
2012,10,22,12,12,-5.10
2012,10,22,12,13,-5.00
2012,10,22,12,14,-4.90
2012,10,22,12,15,-4.80
2012,10,22,12,16,-4.80
2012,10,22,12,17,-4.70
2012,10,22,12,18,-4.60
2012,10,22,12,19,-4.70
2012,10,22,12,20,-4.60
2012,10,22,12,21,-4.60
2012,10,22,12,22,-4.50
2012,10,22,12,23,-4.40
2012,10,22,12,24,-4.40
2012,10,22,12,25,-4.30
2012,10,22,12,26,-4.30
2012,10,22,12,27,-4.20
2012,10,22,12,28,-4.20
2012,10,22,12,29,-4.10
2012,10,22,12,30,-4.10
2012,10,22,12,31,-4.10
2012,10,22,12,32,-4.10
2012,10,22,12,33,-4.10
2012,10,22,12,34,-4.10
2012,10,22,12,35,-4.10
2012,10,22,12,36,-4.10
2012,10,22,12,37,-4.10
2012,10,22,12,38,-4.20
2012,10,22,12,39,-4.20
2012,10,22,12,40,-4.20
2012,10,22,12,41,-4.10
2012,10,22,12,42,-4.00
2012,10,22,12,43,-3.90
2012,10,22,12,44,-3.80
2012,10,22,12,45,-3.70
2012,10,22,12,46,-3.60
2012,10,22,12,47,-3.60
2012,10,22,12,48,-3.40
2012,10,22,12,49,-3.40
2012,10,22,12,50,-3.30
2012,10,22,12,51,-3.20
2012,10,22,12,52,-3.20
2012,10,22,12,53,-3.20
2012,10,22,12,54,-3.20
2012,10,22,12,55,-3.20
2012,10,22,12,56,-3.20
2012,10,22,12,57,-3.20
2012,10,22,12,58,-3.20
2012,10,22,12,59,-3.20
2012,10,22,13,00,-3.10
2012,10,22,13,01,-3.10
2012,10,22,13,02,-3.10
2012,10,22,13,03,-3.00
2012,10,22,13,04,-2.90
2012,10,22,13,05,-2.80
2012,10,22,13,06,-2.70
2012,10,22,13,07,-2.70
2012,10,22,13,08,-2.60
2012,10,22,13,09,-2.50
2012,10,22,13,10,-2.40
2012,10,22,13,11,-2.30
2012,10,22,13,12,-2.30
2012,10,22,13,13,-2.20
2012,10,22,13,14,-2.20
2012,10,22,13,15,-2.20
2012,10,22,13,16,-2.10
2012,10,22,13,17,-1.90
2012,10,22,13,18,-1.80
2012,10,22,13,19,-1.70
2012,10,22,13,20,-1.60
2012,10,22,13,21,-1.50
2012,10,22,13,22,-1.40
2012,10,22,13,23,-1.20
2012,10,22,13,24,-1.10
2012,10,22,13,25,-1.00
2012,10,22,13,26,-0.90
2012,10,22,13,27,-0.80
2012,10,22,13,28,-0.70
2012,10,22,13,29,-0.70
2012,10,22,13,30,-0.70
2012,10,22,13,31,-0.70
2012,10,22,13,32,-0.60
2012,10,22,13,33,-0.60
2012,10,22,13,34,-0.60
2012,10,22,13,35,-0.60
2012,10,22,13,36,-0.50
2012,10,22,13,37,-0.40
2012,10,22,13,38,-0.30
2012,10,22,13,39,-0.30
2012,10,22,13,40,-0.10
2012,10,22,13,41,-4.10
2012,10,22,13,42,-17.80
2012,10,22,13,43,-17.70
2012,10,22,13,44,-17.70
2012,10,22,13,45,-17.60
2012,10,22,13,46,-17.50
2012,10,22,13,47,-17.50
2012,10,22,13,48,-17.40
2012,10,22,13,49,-17.40
2012,10,22,13,50,-17.30
2012,10,22,13,51,-17.20
2012,10,22,13,52,-17.20
2012,10,22,13,53,-17.10
2012,10,22,13,54,-17.10
2012,10,22,13,55,-17.00
2012,10,22,13,56,-17.00
2012,10,22,13,57,-16.90
2012,10,22,13,58,-16.80
2012,10,22,13,59,-16.80
2012,10,22,14,00,-16.70
2012,10,22,14,01,-16.70
2012,10,22,14,02,-16.70
2012,10,22,14,03,-16.60
2012,10,22,14,04,-16.60
2012,10,22,14,05,-16.60
2012,10,22,14,06,-16.60
2012,10,22,14,07,-16.60
2012,10,22,14,08,-16.50
2012,10,22,14,09,-16.50
2012,10,22,14,10,-16.50
2012,10,22,14,11,-16.40
2012,10,22,14,12,-16.40
2012,10,22,14,13,-16.30
2012,10,22,14,14,-16.30
2012,10,22,14,15,-16.20
2012,10,22,14,16,-16.20
2012,10,22,14,17,-16.20
2012,10,22,14,18,-16.20
2012,10,22,14,19,-16.10
2012,10,22,14,20,-16.10
2012,10,22,14,21,-16.10
2012,10,22,14,22,-16.00
2012,10,22,14,23,-16.00
2012,10,22,14,24,-15.90
2012,10,22,14,25,-15.90
2012,10,22,14,26,-15.80
2012,10,22,14,27,-15.80
2012,10,22,14,28,-15.80
2012,10,22,14,29,-15.70
2012,10,22,14,30,-15.70
2012,10,22,14,31,-15.70
2012,10,22,14,32,-15.60
2012,10,22,14,33,-15.60
2012,10,22,14,34,-15.50
2012,10,22,14,35,-15.50
2012,10,22,14,36,-15.50
2012,10,22,14,37,-15.40
2012,10,22,14,38,-15.40
2012,10,22,14,39,-15.40
2012,10,22,14,40,-15.40
2012,10,22,14,41,-15.40
2012,10,22,14,42,-15.40
2012,10,22,14,43,-15.40
2012,10,22,14,44,-15.50
2012,10,22,14,45,-15.50
2012,10,22,14,46,-15.50
2012,10,22,14,47,-15.50
2012,10,22,14,48,-15.60
2012,10,22,14,49,-15.60
2012,10,22,14,50,-15.60
2012,10,22,14,51,-15.70
2012,10,22,14,52,-15.70
2012,10,22,14,53,-15.80
2012,10,22,14,54,-15.80
2012,10,22,14,55,-15.80
2012,10,22,14,56,-15.80
2012,10,22,14,57,-15.80
2012,10,22,14,58,-15.80
2012,10,22,14,59,-15.80
2012,10,22,15,00,-15.80
2012,10,22,15,01,-15.70
2012,10,22,15,02,-15.70
2012,10,22,15,03,-15.70
2012,10,22,15,04,-15.60
2012,10,22,15,05,-15.60
2012,10,22,15,06,-15.60
2012,10,22,15,07,-15.50
2012,10,22,15,08,-15.50
2012,10,22,15,09,-15.50
2012,10,22,15,10,-15.50
2012,10,22,15,11,-15.40
2012,10,22,15,12,-15.40
2012,10,22,15,13,-15.30
2012,10,22,15,14,-15.30
2012,10,22,15,15,-15.30
2012,10,22,15,16,-15.30
2012,10,22,15,17,-15.20
2012,10,22,15,18,-15.20
2012,10,22,15,19,-15.10
2012,10,22,15,20,-15.10
2012,10,22,15,21,-15.10
2012,10,22,15,22,-15.00
2012,10,22,15,23,-15.00
2012,10,22,15,24,-14.90
2012,10,22,15,25,-14.90
2012,10,22,15,26,-14.80
2012,10,22,15,27,-14.80
2012,10,22,15,28,-14.70
2012,10,22,15,29,-14.70
2012,10,22,15,30,-14.70
2012,10,22,15,31,-14.70
2012,10,22,15,32,-14.70
2012,10,22,15,33,-14.70
2012,10,22,15,34,-14.70
2012,10,22,15,35,-14.70
2012,10,22,15,36,-14.70
2012,10,22,15,37,-14.70
2012,10,22,15,38,-14.70
2012,10,22,15,39,-14.70
2012,10,22,15,40,-14.60
2012,10,22,15,41,-14.60
2012,10,22,15,42,-14.60
2012,10,22,15,43,-14.50
2012,10,22,15,44,-14.50
2012,10,22,15,45,-14.40
2012,10,22,15,46,-14.40
2012,10,22,15,47,-14.40
2012,10,22,15,48,-14.40
2012,10,22,15,49,-14.40
2012,10,22,15,50,-14.40
2012,10,22,15,51,-14.40
2012,10,22,15,52,-14.40
2012,10,22,15,53,-14.30
2012,10,22,15,54,-14.30
2012,10,22,15,55,-14.30
2012,10,22,15,56,-14.30
2012,10,22,15,57,-14.30
2012,10,22,15,58,-14.30
2012,10,22,15,59,-14.30
2012,10,22,16,00,-14.20
2012,10,22,16,01,-14.20
2012,10,22,16,02,-14.10
2012,10,22,16,03,-14.10
2012,10,22,16,04,-14.10
2012,10,22,16,05,-14.00
2012,10,22,16,06,-14.00
2012,10,22,16,07,-14.00
2012,10,22,16,08,-13.90
2012,10,22,16,09,-13.90
2012,10,22,16,10,-13.90
2012,10,22,16,11,-14.00
2012,10,22,16,12,-14.00
2012,10,22,16,13,-14.00
2012,10,22,16,14,-14.10
2012,10,22,16,15,-14.10
2012,10,22,16,16,-14.10
2012,10,22,16,17,-14.10
2012,10,22,16,18,-14.10
2012,10,22,16,19,-14.10
2012,10,22,16,20,-14.10
2012,10,22,16,21,-14.10
2012,10,22,16,22,-14.10
2012,10,22,16,23,-14.10
2012,10,22,16,24,-14.10
2012,10,22,16,25,-14.10
2012,10,22,16,26,-14.10
2012,10,22,16,27,-14.10
2012,10,22,16,28,-14.10
2012,10,22,16,29,-14.10
2012,10,22,16,30,-14.10
2012,10,22,16,31,-14.10
2012,10,22,16,32,-14.10
2012,10,22,16,33,-14.10
2012,10,22,16,34,-14.10
2012,10,22,16,35,-14.10
2012,10,22,16,36,-14.10
2012,10,22,16,37,-14.10
2012,10,22,16,38,-14.10
2012,10,22,16,39,-14.10
2012,10,22,16,40,-14.10
2012,10,22,16,41,-14.00
2012,10,22,16,42,-14.00
2012,10,22,16,43,-14.00
2012,10,22,16,44,-14.00
2012,10,22,16,45,-13.90
2012,10,22,16,46,-13.90
2012,10,22,16,47,-13.90
2012,10,22,16,48,-13.90
2012,10,22,16,49,-13.90
2012,10,22,16,50,-13.90
2012,10,22,16,51,-13.90
2012,10,22,16,52,-13.80
2012,10,22,16,53,-13.80
2012,10,22,16,54,-13.70
2012,10,22,16,55,-13.70
2012,10,22,16,56,-13.60
2012,10,22,16,57,-13.60
2012,10,22,16,58,-13.50
2012,10,22,16,59,-13.50
2012,10,22,17,00,-13.40
2012,10,22,17,01,-13.40
2012,10,22,17,02,-13.30
2012,10,22,17,03,-13.30
2012,10,22,17,04,-13.30
2012,10,22,17,05,-13.30
2012,10,22,17,06,-13.40
2012,10,22,17,07,-13.40
2012,10,22,17,08,-13.40
2012,10,22,17,09,-13.50
2012,10,22,17,10,-13.50
2012,10,22,17,11,-13.60
2012,10,22,17,12,-13.60
2012,10,22,17,13,-13.70
2012,10,22,17,14,-13.70
2012,10,22,17,15,-13.70
2012,10,22,17,16,-13.80
2012,10,22,17,17,-13.80
2012,10,22,17,18,-13.80
2012,10,22,17,19,-13.80
2012,10,22,17,20,-13.80
2012,10,22,17,21,-13.80
2012,10,22,17,22,-13.80
2012,10,22,17,23,-13.90
2012,10,22,17,24,-13.90
2012,10,22,17,25,-13.90
2012,10,22,17,26,-13.90
2012,10,22,17,27,-13.90
2012,10,22,17,28,-13.90
2012,10,22,17,29,-13.90
2012,10,22,17,30,-13.90
2012,10,22,17,31,-13.90
2012,10,22,17,32,-13.90
2012,10,22,17,33,-13.90
2012,10,22,17,34,-13.90
2012,10,22,17,35,-13.80
2012,10,22,17,36,-13.80
2012,10,22,17,37,-13.80
2012,10,22,17,38,-13.80
2012,10,22,17,39,-13.80
2012,10,22,17,40,-13.80
2012,10,22,17,41,-13.80
2012,10,22,17,42,-13.80
2012,10,22,17,43,-13.80
2012,10,22,17,44,-13.80
2012,10,22,17,45,-13.80
2012,10,22,17,46,-13.80
2012,10,22,17,47,-13.80
2012,10,22,17,48,-13.80
2012,10,22,17,49,-13.70
2012,10,22,17,50,-13.70
2012,10,22,17,51,-13.80
2012,10,22,17,52,-13.80
2012,10,22,17,53,-13.80
2012,10,22,17,54,-13.80
2012,10,22,17,55,-13.80
2012,10,22,17,56,-13.80
2012,10,22,17,57,-13.80
2012,10,22,17,58,-13.80
2012,10,22,17,59,-13.80
2012,10,22,18,00,-13.80
2012,10,22,18,01,-13.80
2012,10,22,18,02,-13.80
2012,10,22,18,03,-13.80
2012,10,22,18,04,-13.80
2012,10,22,18,05,-13.80
2012,10,22,18,06,-13.80
2012,10,22,18,07,-13.90
2012,10,22,18,08,-13.90
2012,10,22,18,09,-13.90
2012,10,22,18,10,-13.90
2012,10,22,18,11,-13.90
2012,10,22,18,12,-13.90
2012,10,22,18,13,-14.00
2012,10,22,18,14,-14.00
2012,10,22,18,15,-14.00
2012,10,22,18,16,-14.00
2012,10,22,18,17,-14.00
2012,10,22,18,18,-14.00
2012,10,22,18,19,-14.00
2012,10,22,18,20,-14.00
2012,10,22,18,21,-14.10
2012,10,22,18,22,-14.10
2012,10,22,18,23,-14.10
2012,10,22,18,24,-14.20
2012,10,22,18,25,-14.20
2012,10,22,18,26,-14.20
2012,10,22,18,27,-14.30
2012,10,22,18,28,-14.30
2012,10,22,18,29,-14.30
2012,10,22,18,30,-14.40
2012,10,22,18,31,-14.40
2012,10,22,18,32,-14.50
2012,10,22,18,33,-14.50
2012,10,22,18,34,-14.60
2012,10,22,18,35,-14.60
2012,10,22,18,36,-14.70
2012,10,22,18,37,-14.70
2012,10,22,18,38,-14.70
2012,10,22,18,39,-14.80
2012,10,22,18,40,-14.80
2012,10,22,18,41,-14.80
2012,10,22,18,42,-14.90
2012,10,22,18,43,-14.90
2012,10,22,18,44,-14.90
2012,10,22,18,45,-15.00
2012,10,22,18,46,-15.10
2012,10,22,18,47,-15.10
2012,10,22,18,48,-15.10
2012,10,22,18,49,-15.20
2012,10,22,18,50,-15.20
2012,10,22,18,51,-15.20
2012,10,22,18,52,-15.30
2012,10,22,18,53,-15.30
2012,10,22,18,54,-15.30
2012,10,22,18,55,-15.40
2012,10,22,18,56,-15.40
2012,10,22,18,57,-15.40
2012,10,22,18,58,-15.50
2012,10,22,18,59,-15.50
2012,10,22,19,00,-15.60
2012,10,22,19,01,-15.60
2012,10,22,19,02,-15.60
2012,10,22,19,03,-15.70
2012,10,22,19,04,-15.70
2012,10,22,19,05,-15.70
2012,10,22,19,06,-15.70
2012,10,22,19,07,-15.80
2012,10,22,19,08,-15.80
2012,10,22,19,09,-15.80
2012,10,22,19,10,-15.80
2012,10,22,19,11,-15.80
2012,10,22,19,12,-15.90
2012,10,22,19,13,-15.90
2012,10,22,19,14,-15.90
2012,10,22,19,15,-15.90
2012,10,22,19,16,-15.90
2012,10,22,19,17,-16.00
2012,10,22,19,18,-16.00
2012,10,22,19,19,-16.10
2012,10,22,19,20,-16.10
2012,10,22,19,21,-16.10
2012,10,22,19,22,-16.10
2012,10,22,19,23,-16.20
2012,10,22,19,24,-16.20
2012,10,22,19,25,-16.20
2012,10,22,19,26,-16.20
2012,10,22,19,27,-16.30
2012,10,22,19,28,-16.30
2012,10,22,19,29,-16.30
2012,10,22,19,30,-16.30
2012,10,22,19,31,-16.30
2012,10,22,19,32,-16.30
2012,10,22,19,33,-16.40
2012,10,22,19,34,-16.40
2012,10,22,19,35,-16.40
2012,10,22,19,36,-16.40
2012,10,22,19,37,-16.40
2012,10,22,19,38,-16.50
2012,10,22,19,39,-16.50
2012,10,22,19,40,-16.50
2012,10,22,19,41,-16.50
2012,10,22,19,42,-16.60
2012,10,22,19,43,-16.60
2012,10,22,19,44,-16.60
2012,10,22,19,45,-16.60
2012,10,22,19,46,-16.60
2012,10,22,19,47,-16.60
2012,10,22,19,48,-16.70
2012,10,22,19,49,-16.70
2012,10,22,19,50,-16.70
2012,10,22,19,51,-16.70
2012,10,22,19,52,-16.70
2012,10,22,19,53,-16.70
2012,10,22,19,54,-16.70
2012,10,22,19,55,-16.70
2012,10,22,19,56,-16.80
2012,10,22,19,57,-16.80
2012,10,22,19,58,-16.80
2012,10,22,19,59,-16.80
2012,10,22,20,00,-16.80
2012,10,22,20,01,-16.80
2012,10,22,20,02,-16.80
2012,10,22,20,03,-16.80
2012,10,22,20,04,-16.80
2012,10,22,20,05,-16.80
2012,10,22,20,06,-16.80
2012,10,22,20,07,-16.80
2012,10,22,20,08,-16.90
2012,10,22,20,09,-16.90
2012,10,22,20,10,-16.90
2012,10,22,20,11,-16.90
2012,10,22,20,12,-16.90
2012,10,22,20,13,-16.90
2012,10,22,20,14,-17.00
2012,10,22,20,15,-17.00
2012,10,22,20,16,-17.00
2012,10,22,20,17,-17.00
2012,10,22,20,18,-17.10
2012,10,22,20,19,-17.10
2012,10,22,20,20,-17.10
2012,10,22,20,21,-17.10
2012,10,22,20,22,-17.10
2012,10,22,20,23,-17.10
2012,10,22,20,24,-17.10
2012,10,22,20,25,-17.10
2012,10,22,20,26,-17.10
2012,10,22,20,27,-17.10
2012,10,22,20,28,-17.20
2012,10,22,20,29,-17.20
2012,10,22,20,30,-17.20
2012,10,22,20,31,-17.20
2012,10,22,20,32,-17.20
2012,10,22,20,33,-17.20
2012,10,22,20,34,-17.20
2012,10,22,20,35,-17.20
2012,10,22,20,36,-17.20
2012,10,22,20,37,-17.20
2012,10,22,20,38,-17.30
2012,10,22,20,39,-17.30
2012,10,22,20,40,-17.30
2012,10,22,20,41,-17.30
2012,10,22,20,42,-17.30
2012,10,22,20,43,-17.30
2012,10,22,20,44,-17.30
2012,10,22,20,45,-17.30
2012,10,22,20,46,-17.30
2012,10,22,20,47,-17.30
2012,10,22,20,48,-17.30
2012,10,22,20,49,-17.30
2012,10,22,20,50,-17.30
2012,10,22,20,51,-17.40
2012,10,22,20,52,-17.40
2012,10,22,20,53,-17.40
2012,10,22,20,54,-17.40
2012,10,22,20,55,-17.40
2012,10,22,20,56,-17.40